Regional Weather Roundup
Issued by NWS Sioux Falls, SD

Home | Current Version | Previous Version | Graphics & Text | Print | Product List | Glossary On
Versions: 1 2 3 4 5 6 7 8 9 10 11 12 13 14 15 16 17 18 19 20 21 22 23 24 25 26 27 28 29 30 31 32 33 34 35 36 37 38 39 40 41 42 43 44 45 46 47 48 49 50
000
ASUS43 KFSD 120002
RWRFSD

WEATHER ROUNDUP FOR SE SOUTH DAKOTA/SW MINNESOTA/NW IOWA
NATIONAL WEATHER SERVICE SIOUX FALLS SD
700 PM CDT FRI JUL 11 2014

NOTE: "FAIR" INDICATES FEW OR NO CLOUDS BELOW 12,000 FEET WITH NO
SIGNIFICANT WEATHER AND OR OBSTRUCTIONS TO VISIBILITY.


SDZ038>040-050-052>070-120100-
SOUTHEAST SOUTH DAKOTA

CITY           SKY/WX    TMP DP  RH WIND       PRES   REMARKS
CHAMBERLAIN    PTSUNNY   85  67  53 CALM      29.96R
6HR MIN TEMP:  85; 6HR MAX TEMP:  92;

HURON          SUNNY     88  66  48 N12       29.93R
6HR MIN TEMP:  88; 6HR MAX TEMP:  94;

MADISON        FAIR      82  72  69 S5        29.98R
MITCHELL       MOSUNNY   87  74  64 S10       29.95R HX  95
6HR MIN TEMP:  84; 6HR MAX TEMP:  89;

SIOUX FALLS    PTSUNNY   80  72  76 S8        29.97S
6HR MIN TEMP:  80; 6HR MAX TEMP:  85;

WINNER         FAIR      84  71  65 SE10      29.97R
YANKTON        PTSUNNY   79  73  83 E5        29.96S
$$

MNZ071-072-080-081-089-090-097-098-120100-
SOUTHWEST MINNESOTA

CITY           SKY/WX    TMP DP  RH WIND       PRES   REMARKS
FAIRMONT       CLOUDY    81  66  61 SW9       29.98S
JACKSON        CLOUDY    79  68  69 S8        30.00S
LUVERNE        MOSUNNY   79  72  78 S9        29.99S
MARSHALL       SUNNY     86  72  62 SW7       29.95R
6HR MIN TEMP:  77; 6HR MAX TEMP:  88;

MONTEVIDEO     SUNNY     88  70  55 CALM      29.95R
PIPESTONE      MOSUNNY   82  72  69 SW6       29.99S
REDWOOD FALLS  MOSUNNY   84  72  67 SW7       29.95R
TRACY          MOSUNNY   85  71  64 SW6       29.97S
WINDOM         MOSUNNY   81  70  69 SW7       29.99R
WORTHINGTON    MOSUNNY   79  72  78 S9        30.01S
$$

IAZ001>003-012>014-020>022-031-032-NEZ013-014-SDZ071-120100-
NORTHWEST IOWA

CITY           SKY/WX    TMP DP  RH WIND       PRES   REMARKS
CHEROKEE       DRIZZLE   73  70  90 CALM      29.99F
DENISON        CLOUDY    75  72  88 CALM      29.99R
ESTHERVILLE    PTSUNNY   78  68  71 SW10      30.00S
LE MARS        CLOUDY    73  72  94 S6        29.99S
ORANGE CITY    CLOUDY    79  70  73 S7        29.99S
SHELDON        PTSUNNY   77  70  78 VRB3      29.98F
SIOUX CITY     LGT RAIN  75  72  90 S5        29.98R
6HR MIN TEMP:  75; 6HR MAX TEMP:  78; 6HR PCP:  0.01;

SPENCER        MOSUNNY   78  70  76 SW8       30.00S
6HR MIN TEMP:  77; 6HR MAX TEMP:  81;

STORM LAKE     CLOUDY    73  73 100 CALM      30.02F
$$

ABBREVIATIONS USED IN REMARKS
   TC - TEMPERATURE IN CELSIUS
  WCI - WIND CHILL INDEX
   HX - HEAT INDEX
  VSB - VISIBILITY



USA.gov is the U.S. government's official web portal to all federal, state and local government web resources and services.